Lebanon, NH

12:21 AM EST on December 18, 2017 (GMT -0500)
Lebanon Municipal

Weather History for KLEB - July, 2014

Change the Weather History Date:

Sunday, July 20, 2014

  Actual Average Record
Temperature  
Mean Temperature 68 °F -  
Max Temperature 80 °F 83 °F 96 °F (1991)
Min Temperature 57 °F 60 °F 39 °F (1929)
Cooling Degree Days 2    
Growing Degree Days 18 (Base 50)    
Moisture  
Dew Point 57 °F    
Average Humidity 81    
Maximum Humidity 94    
Minimum Humidity 37    
Precipitation  
Precipitation 0.01 in - - ()
Sea Level Pressure  
Sea Level Pressure 30.19 in    
Wind  
Wind Speed 1 mph (ENE)    
Max Wind Speed 8 mph    
Max Gust Speed -    
Visibility 6 miles    
Events Fog , Rain    
Averages and records for this station are not official NWS values.
T = Trace of Precipitation, MM = Missing Value Source: NWS Daily Summary

Daily Weather History Graph

Daily Weather History Graph

Search for Another Location

Airport or City:

Trip Planner

Search our weather history database for the weather conditions in past years. The results will help you decide how hot, cold, wet, or windy it might be!

Date:

Astronomy

Jul. 20, 2014 Rise Set
Actual Time 5:26 AM EDT 8:24 PM EDT
Civil Twilight 4:51 AM EDT 8:58 PM EDT
Nautical Twilight 4:08 AM EDT 9:41 PM EDT
Astronomical Twilight 3:16 AM EDT 10:32 PM EDT
Moon 12:40 AM EDT (7/20) 3:01 PM EDT (7/20)
Length of Visible Light 16h 06m
Length of Day
14h 58m
Waning Crescent, 34% of the Moon is Illuminated
Jul 20
Waning Crescent
Jul 26
New
Aug 3
First Quarter
Aug 10
Full
Aug 17
Last Quarter

Hourly Weather History & Observations

Time (EDT) Temp. Dew Point Humidity Pressure Visibility Wind Dir Wind Speed Gust Speed Precip Events Conditions
12:53 AM 59.0 °F 55.9 °F 90% 30.20 in 9.0 mi Calm Calm - N/A   Clear
1:53 AM 59.0 °F 55.9 °F 90% 30.19 in 7.0 mi Calm Calm - N/A   Clear
2:49 AM 57.2 °F 55.4 °F 94% 30.21 in 6.0 mi Calm Calm - N/A   Scattered Clouds
2:53 AM 57.9 °F 55.0 °F 90% 30.18 in 4.0 mi Calm Calm - N/A   Mostly Cloudy
3:30 AM 60.1 °F 57.9 °F 93% 30.20 in 1.8 mi Calm Calm - N/A   Overcast
3:39 AM 60.1 °F 57.9 °F 93% 30.20 in 0.5 mi NE 3.5 mph - N/A Fog Fog
3:47 AM 59.0 °F 57.2 °F 94% 30.19 in 2.0 mi North 3.5 mph - N/A   Overcast
3:53 AM 60.1 °F 57.9 °F 93% 30.18 in 7.0 mi Calm Calm - N/A   Overcast
4:37 AM 61.0 °F 57.9 °F 90% 30.20 in 1.8 mi Calm Calm - N/A   Overcast
4:53 AM 60.1 °F 57.9 °F 93% 30.18 in 0.8 mi Calm Calm - N/A   Mist
5:27 AM 60.1 °F 57.9 °F 93% 30.21 in 1.0 mi Calm Calm - N/A   Mist
5:46 AM 60.1 °F 57.9 °F 93% 30.21 in 0.2 mi Calm Calm - N/A Fog Fog
5:53 AM 60.1 °F 57.9 °F 93% 30.19 in 0.5 mi North 3.5 mph - N/A Fog Fog
6:17 AM 60.1 °F 57.9 °F 93% 30.21 in 2.0 mi Calm Calm - N/A   Overcast
6:25 AM 60.1 °F 57.9 °F 93% 30.21 in 3.0 mi Calm Calm - N/A   Overcast
6:30 AM 60.1 °F 57.9 °F 93% 30.21 in 1.8 mi Calm Calm - N/A   Overcast
6:41 AM 60.1 °F 57.9 °F 93% 30.21 in 0.5 mi Calm Calm - N/A Fog Fog
6:51 AM 60.8 °F 57.2 °F 88% 30.21 in 1.0 mi Calm Calm - N/A   Overcast
6:53 AM 61.0 °F 57.9 °F 90% 30.19 in 1.0 mi Calm Calm - N/A   Overcast
7:09 AM 61.0 °F 57.9 °F 90% 30.21 in 3.0 mi NNE 3.5 mph - N/A   Overcast
7:32 AM 61.0 °F 57.9 °F 90% 30.21 in 2.0 mi Calm Calm - N/A   Overcast
7:53 AM 61.0 °F 57.9 °F 90% 30.20 in 3.0 mi Calm Calm - N/A   Overcast
7:59 AM 61.0 °F 57.9 °F 90% 30.22 in 1.8 mi Calm Calm - N/A   Overcast
8:07 AM 61.0 °F 59.0 °F 93% 30.22 in 3.0 mi Calm Calm - N/A   Overcast
8:53 AM 62.1 °F 59.0 °F 90% 30.21 in 6.0 mi Calm Calm - 0.01 in Rain Light Rain
9:53 AM 64.0 °F 60.1 °F 87% 30.21 in 7.0 mi Calm Calm - 0.00 in   Overcast
10:26 AM 64.9 °F 61.0 °F 87% 30.22 in 8.0 mi Calm Calm - N/A   Overcast
10:48 AM 64.4 °F 60.8 °F 88% 30.22 in 9.0 mi Calm Calm - N/A   Overcast
10:53 AM 64.9 °F 61.0 °F 87% 30.21 in 9.0 mi Calm Calm - N/A   Overcast
11:53 AM 69.1 °F 62.1 °F 78% 30.19 in 10.0 mi Calm Calm - N/A   Mostly Cloudy
12:53 PM 73.9 °F 57.9 °F 57% 30.17 in 10.0 mi South 8.1 mph - N/A   Mostly Cloudy
1:53 PM 75.0 °F 52.0 °F 44% 30.16 in 10.0 mi Calm Calm - N/A   Scattered Clouds
2:53 PM 77.0 °F 50.0 °F 39% 30.14 in 10.0 mi Variable 3.5 mph - N/A   Clear
3:53 PM 78.1 °F 50.0 °F 37% 30.13 in 10.0 mi Calm Calm - N/A   Clear
4:53 PM 78.1 °F 50.0 °F 37% 30.12 in 10.0 mi Calm Calm - N/A   Clear
5:53 PM 78.1 °F 50.0 °F 37% 30.12 in 10.0 mi Variable 5.8 mph - N/A   Partly Cloudy
6:53 PM 73.9 °F 55.0 °F 52% 30.12 in 10.0 mi SE 3.5 mph - N/A   Scattered Clouds
7:53 PM 68.0 °F 55.9 °F 65% 30.13 in 10.0 mi SE 3.5 mph - N/A   Scattered Clouds
8:53 PM 62.1 °F 55.0 °F 78% 30.14 in 10.0 mi Calm Calm - N/A   Clear
9:53 PM 60.1 °F 55.0 °F 83% 30.16 in 10.0 mi Calm Calm - N/A   Clear
10:53 PM 59.0 °F 54.0 °F 83% 30.17 in 10.0 mi Calm Calm - N/A   Clear
11:53 PM 57.0 °F 54.0 °F 89% 30.16 in 10.0 mi Calm Calm - N/A   Clear